FW6610 Weather Reports


Display with metric or nautical units.
time (UTC)temp
F
wind
direction
speed
MPH
gust
MPH
rain 1hr
in
rain 24hr
in
rain mn
in
humidity
%
barometer
mb
20260504004545 45 202 0.0 1.0 0.00 0.00 0.00 51 1010.0
20260504004029 45 201 0.0 1.0 0.00 0.00 0.00 48 1009.9
20260504003530 46 199 0.0 1.0 0.00 0.00 0.00 49 1009.8
20260504003041 47 207 0.0 1.0 0.00 0.00 0.00 50 1009.7
20260504002529 47 0 0.0 1.0 0.00 0.00 0.00 45 1009.6
20260504002029 48 207 0.0 1.0 0.00 0.00 0.00 46 1009.5
20260504001547 49 236 0.0 1.0 0.00 0.00 0.00 40 1009.5
20260504001029 50 0 0.0 4.0 0.00 0.00 0.00 37 1009.5
20260504000530 51 0 0.0 4.0 0.00 0.00 0.00 37 1009.4
20260504000043 51 310 0.0 4.0 0.00 0.00 0.00 35 1009.4
20260503235529 51 314 1.0 4.0 0.00 0.00 0.00 36 1009.4
20260503235029 52 359 1.0 9.0 0.00 0.00 0.00 35 1009.4
20260503234537 52 334 2.0 9.0 0.00 0.00 0.00 35 1009.2
20260503234029 52 0 1.0 6.0 0.00 0.00 0.00 36 1009.4
20260503233528 52 278 2.0 8.0 0.00 0.00 0.00 34 1009.2
20260503233045 52 301 4.0 8.0 0.00 0.00 0.00 34 1009.1
20260503232528 52 328 1.0 5.0 0.00 0.00 0.00 35 1009.3
20260503232029 53 323 2.0 9.0 0.00 0.00 0.00 35 1009.2
20260503231537 53 319 1.0 9.0 0.00 0.00 0.00 36 1009.2
20260503231032 53 349 3.0 9.0 0.00 0.00 0.00 35 1009.0
20260503230530 53 340 4.0 9.0 0.00 0.00 0.00 39 1009.2
20260503230045 53 104 2.0 6.0 0.00 0.00 0.00 38 1009.1
20260503225529 53 252 2.0 12.0 0.00 0.00 0.00 36 1009.0
20260503225031 54 274 3.0 12.0 0.00 0.00 0.00 36 1009.1
20260503224541 54 335 3.0 9.0 0.00 0.00 0.00 35 1009.1
20260503224028 54 287 3.0 8.0 0.00 0.00 0.00 37 1009.0
20260503223529 55 328 2.0 9.0 0.00 0.00 0.00 38 1009.0
20260503223042 54 333 3.0 9.0 0.00 0.00 0.00 39 1009.2
20260503222528 55 349 2.0 7.0 0.00 0.00 0.00 38 1009.2
20260503222030 55 322 2.0 9.0 0.00 0.00 0.00 37 1009.1
20260503221536 55 61 2.0 11.0 0.00 0.00 0.00 38 1009.1
20260503221029 55 307 4.0 11.0 0.00 0.00 0.00 38 1009.1
20260503220529 55 328 4.0 18.0 0.00 0.00 0.00 37 1009.1
20260503220035 54 281 4.0 18.0 0.00 0.00 0.00 39 1009.1
20260503215529 54 352 4.0 14.0 0.00 0.00 0.00 38 1009.1
20260503215029 54 320 3.0 15.0 0.00 0.00 0.00 41 1009.0
20260503214545 54 350 6.0 15.0 0.00 0.00 0.00 39 1009.1
20260503214029 54 274 5.0 13.0 0.00 0.00 0.00 40 1009.3
20260503213528 53 18 5.0 14.0 0.00 0.00 0.00 39 1009.0
20260503213045 53 164 4.0 14.0 0.00 0.00 0.00 42 1009.2
20260503212528 53 11 6.0 15.0 0.00 0.00 0.00 41 1009.0
20260503212029 53 285 7.0 15.0 0.00 0.00 0.00 41 1009.2
20260503211540 54 286 6.0 15.0 0.00 0.00 0.00 41 1009.1
20260503211028 54 304 5.0 11.0 0.00 0.00 0.00 42 1009.1
20260503210528 54 304 3.0 12.0 0.00 0.00 0.00 40 1009.1
20260503210040 53 359 5.0 15.0 0.00 0.00 0.00 41 1009.1
20260503205529 53 332 8.0 15.0 0.00 0.00 0.00 43 1009.1
20260503205029 53 334 5.0 13.0 0.00 0.00 0.00 40 1008.9
20260503204544 53 303 4.0 16.0 0.00 0.00 0.00 41 1008.9
20260503204028 53 356 3.0 16.0 0.00 0.00 0.00 41 1009.0
20260503203533 53 319 7.0 12.0 0.00 0.00 0.00 40 1008.9
20260503203047 53 322 6.0 11.0 0.00 0.00 0.00 45 1008.8
20260503202529 53 317 5.0 15.0 0.00 0.00 0.00 43 1008.9
20260503202029 52 282 5.0 15.0 0.00 0.00 0.00 41 1008.8
20260503201546 53 309 6.0 15.0 0.00 0.00 0.00 42 1009.0
20260503201028 52 258 6.0 15.0 0.00 0.00 0.00 43 1009.0
20260503200528 52 1 5.0 12.0 0.00 0.00 0.00 42 1008.8
20260503200044 52 323 5.0 10.0 0.00 0.00 0.00 43 1009.0
20260503195528 52 28 4.0 17.0 0.00 0.00 0.00 43 1008.9
20260503195028 52 10 5.0 22.0 0.00 0.00 0.00 43 1008.9
20260503194545 52 319 7.0 22.0 0.00 0.00 0.00 42 1009.0
20260503194028 52 356 4.0 17.0 0.00 0.00 0.00 43 1009.1
20260503193528 52 278 7.0 12.0 0.00 0.00 0.00 42 1008.9
20260503193046 52 312 4.0 11.0 0.00 0.00 0.00 42 1009.0
20260503192529 52 6 4.0 11.0 0.00 0.00 0.00 42 1009.0
20260503192034 52 297 4.0 10.0 0.00 0.00 0.00 43 1009.0
20260503191604 52 304 6.0 11.0 0.00 0.00 0.00 42 1009.0
20260503191033 52 312 4.0 12.0 0.00 0.00 0.00 43 1009.1
20260503190534 52 295 4.0 15.0 0.00 0.00 0.00 47 1009.0
20260503190036 52 3 6.0 15.0 0.00 0.00 0.00 43 1009.0
20260503185530 52 235 2.0 12.0 0.00 0.00 0.00 46 1009.0
20260503185030 52 311 4.0 14.0 0.00 0.00 0.00 45 1008.9
20260503184545 51 342 4.0 14.0 0.00 0.00 0.00 46 1008.9
20260503184033 52 25 5.0 12.0 0.00 0.00 0.00 44 1008.9
20260503183534 52 344 6.0 12.0 0.00 0.00 0.00 42 1008.8
20260503183044 52 332 3.0 13.0 0.00 0.00 0.00 46 1008.8
20260503182534 51 312 4.0 13.0 0.00 0.00 0.00 44 1008.7
20260503182030 51 329 4.0 14.0 0.00 0.00 0.00 46 1008.8
20260503181548 51 250 5.0 14.0 0.00 0.00 0.00 45 1008.9
20260503181030 52 24 4.0 14.0 0.00 0.00 0.00 50 1008.9
20260503180530 51 337 4.0 14.0 0.00 0.00 0.00 48 1008.8
20260503180054 51 342 6.0 15.0 0.00 0.00 0.00 46 1009.1
20260503175535 51 312 7.0 15.0 0.00 0.00 0.00 46 1009.1
20260503175032 51 294 5.0 12.0 0.00 0.00 0.00 47 1009.0
20260503174546 52 319 6.0 14.0 0.00 0.00 0.00 46 1008.9
20260503174032 52 8 4.0 16.0 0.00 0.00 0.00 46 1008.7
20260503173532 53 332 6.0 23.0 0.00 0.00 0.00 47 1008.9
20260503173037 52 291 10.0 23.0 0.00 0.00 0.00 47 1008.8
20260503172530 52 318 9.0 20.0 0.00 0.00 0.00 45 1008.7
20260503172030 53 330 8.0 20.0 0.00 0.00 0.00 47 1008.7
20260503171549 53 324 8.0 16.0 0.00 0.00 0.00 43 1008.7
20260503171034 52 347 7.0 15.0 0.00 0.00 0.00 43 1008.7
20260503170531 52 287 8.0 16.0 0.00 0.00 0.00 44 1008.6
20260503150530 49 276 3.0 20.0 0.00 0.00 0.00 52 1008.9
20260503131029 46 317 7.0 15.0 0.00 0.00 0.00 63 1009.4
20260503130525 46 281 5.0 12.0 0.00 0.00 0.00 65 1009.3
20260503110528 42 307 4.0 15.0 0.00 0.03 0.00 69 1009.3
20260503081542 40 326 1.0 8.0 0.00 0.19 0.00 68 1010.0
20260503081031 40 342 1.0 6.0 0.00 0.19 0.00 68 1009.8
20260503080531 40 327 1.0 6.0 0.00 0.19 0.00 67 1009.9
20260503072529 41 342 0.0 5.0 0.00 0.20 0.00 68 1010.1
20260503072029 41 15 1.0 6.0 0.00 0.20 0.00 65 1010.0
20260503071539 41 296 2.0 6.0 0.00 0.20 0.00 65 1010.0
20260503071029 41 314 2.0 4.0 0.00 0.20 0.00 65 1009.9
20260503070530 41 321 1.0 4.0 0.00 0.20 0.00 66 1009.8
20260503055030 41 337 0.0 2.0 0.00 0.21 0.00 66 1011.3
20260503054558 40 316 0.0 2.0 0.00 0.21 0.00 67 1011.3
20260503054029 40 0 0.0 2.0 0.00 0.21 0.00 69 1011.4
20260503053530 40 334 0.0 2.0 0.00 0.21 0.00 67 1011.3
20260503053039 40 222 0.0 1.0 0.00 0.21 0.00 70 1011.4
20260503052530 40 0 0.0 1.0 0.00 0.21 0.00 69 1011.5
20260503052030 40 0 0.0 1.0 0.00 0.21 0.00 69 1011.5
20260503051538 41 222 0.0 1.0 0.00 0.21 0.00 68 1011.6
20260503051025 41 0 0.0 0.0 0.00 0.21 0.00 69 1011.6
20260503050527 41 0 0.0 0.0 0.00 0.21 0.00 67 1011.5
20260503050038 42 0 0.0 0.0 0.00 0.21 0.00 68 1011.6
20260503045529 42 0 0.0 0.0 0.00 0.21 0.00 65 1011.6
20260503045030 43 0 0.0 2.0 0.00 0.21 0.00 63 1011.5
20260503044541 43 0 0.0 2.0 0.00 0.21 0.00 60 1011.6
20260503044029 43 304 1.0 4.0 0.00 0.21 0.00 59 1011.6
20260503043529 43 0 1.0 4.0 0.00 0.21 0.00 60 1011.6
20260503043048 42 304 0.0 2.0 0.00 0.21 0.00 62 1011.6
20260503042529 42 260 0.0 1.0 0.00 0.21 0.00 64 1011.7
20260503042029 42 0 0.0 1.0 0.00 0.21 0.00 64 1011.9
20260503041537 42 0 0.0 1.0 0.00 0.21 0.00 65 1011.7
20260503041029 42 0 0.0 1.0 0.00 0.21 0.00 66 1011.6
20260503040532 43 0 0.0 1.0 0.00 0.21 0.00 66 1011.7
20260503040039 43 0 0.0 2.0 0.00 0.21 0.00 63 1011.8
20260503035525 43 0 0.0 5.0 0.00 0.21 0.21 62 1011.8
20260503035025 44 0 1.0 5.0 0.00 0.21 0.21 59 1011.8
20260503034541 43 0 0.0 4.0 0.00 0.21 0.21 60 1011.8
20260503034029 43 321 1.0 4.0 0.00 0.21 0.21 61 1011.8
20260503033525 43 0 0.0 1.0 0.00 0.21 0.21 64 1012.0
20260503033044 43 0 0.0 1.0 0.00 0.21 0.21 63 1011.9
20260503032524 43 0 0.0 1.0 0.00 0.21 0.21 63 1012.1
20260503032028 43 0 0.0 2.0 0.00 0.21 0.21 66 1012.0
20260503031544 43 0 0.0 2.0 0.00 0.21 0.21 66 1012.1
20260503031029 43 277 0.0 1.0 0.00 0.21 0.21 64 1012.1
20260503030529 43 0 0.0 2.0 0.00 0.21 0.21 64 1012.1
20260503030040 43 324 0.0 2.0 0.00 0.21 0.21 63 1012.2
20260503025528 44 0 0.0 2.0 0.00 0.21 0.21 67 1012.3
20260503025029 44 0 0.0 1.0 0.00 0.21 0.21 63 1012.1
20260503024540 44 0 0.0 1.0 0.00 0.21 0.21 63 1012.3
20260503024029 44 0 0.0 0.0 0.00 0.21 0.21 64 1012.3
20260503023527 44 0 0.0 0.0 0.00 0.21 0.21 63 1012.3
20260503023037 45 0 0.0 0.0 0.00 0.21 0.21 59 1012.3
20260503022527 45 316 0.0 1.0 0.00 0.21 0.21 59 1012.3
20260503022027 45 0 0.0 1.0 0.00 0.21 0.21 58 1012.2
20260503021535 46 0 0.0 2.0 0.00 0.21 0.21 58 1012.3
20260503021029 46 326 0.0 2.0 0.00 0.21 0.21 56 1012.3
20260503020531 46 342 0.0 3.0 0.00 0.21 0.21 56 1012.2
20260503020045 46 0 0.0 3.0 0.00 0.21 0.21 56 1012.3
20260503015532 46 322 0.0 3.0 0.00 0.21 0.21 54 1012.4
20260503015029 47 305 0.0 1.0 0.00 0.21 0.21 55 1012.3
20260503014544 47 0 0.0 0.0 0.00 0.21 0.21 54 1012.3
20260503014029 47 0 0.0 2.0 0.00 0.21 0.21 53 1012.3
20260503013530 47 0 0.0 2.0 0.00 0.21 0.21 53 1012.3
20260503013044 47 0 0.0 2.0 0.00 0.21 0.21 53 1012.3
20260503012530 47 318 1.0 4.0 0.00 0.21 0.21 53 1012.3
20260503012029 47 312 1.0 4.0 0.00 0.21 0.21 52 1012.3
20260503011542 47 300 0.0 3.0 0.00 0.21 0.21 54 1012.4
20260503011029 48 329 0.0 3.0 0.00 0.21 0.21 53 1012.2
20260503010533 48 291 0.0 2.0 0.00 0.21 0.21 53 1012.2
20260503010038 48 309 0.0 2.0 0.00 0.21 0.21 55 1012.1
20260503005530 49 0 0.0 2.0 0.00 0.21 0.21 53 1012.1
20260503005031 49 0 0.0 2.0 0.00 0.21 0.21 51 1012.3